This demonstration page uses our WeatherBlox Daily Observations layout. Learn more.

Left ArrowRight Arrow

36.19886, -115.1175

Hourly Observations for November 26, 2022

Temp ( °F °C ) Dew Point ( °F °C ) Humidity (%) Winds ( mph kmh ) Pressure ( in mb ) Visibility ( mi km ) Precip ( " mm )
12:53 am 00:53 Clear 44 6.7 14 -10 29 29 W 6 9 30.23 1024 10 16 0.00 0.00
1:53 am 01:53 Clear 42 5.6 13 -10.6 30 30 WNW 8 13 30.22 1023 10 16 0.00 0.00
2:53 am 02:53 Clear 43 6.1 12 -11.1 28 28 WNW 8 13 30.21 1023 10 16 0.00 0.00
3:53 am 03:53 Clear 41 5 12 -11.1 30 30 WNW 5 7 30.19 1023 10 16 0.00 0.00
4:53 am 04:53 Clear 41 5 13 -10.6 31 31 NW 5 7 30.19 1022 10 16 0.00 0.00
5:53 am 05:53 Clear 41 5 14 -10 33 33 Calm 30.20 1023 10 16 0.00 0.00
6:53 am 06:53 Sunny 39 3.9 16 -8.9 39 39 W 6 9 30.21 1023 10 16 0.00 0.00
7:53 am 07:53 Sunny 45 7.2 15 -9.4 29 29 Calm 30.21 1023 10 16 0.00 0.00
8:53 am 08:53 Sunny 49 9.4 14 -10 24 24 Calm 30.22 1023 10 16 0.00 0.00
9:53 am 09:53 Sunny 53 11.7 14 -10 21 21 Calm 30.20 1023 10 16 0.00 0.00
10:53 am 10:53 Sunny 56 13.3 14 -10 19 19 Calm 30.17 1022 10 16 0.00 0.00
11:53 am 11:53 Sunny 56 13.3 13 -10.6 18 18 E 5 7 30.14 1021 10 16 0.00 0.00
12:53 pm 12:53 Sunny 56 13.3 12 -11.1 17 17 E 5 7 30.11 1020 10 16 0.00 0.00
1:53 pm 13:53 Sunny 57 13.9 13 -10.6 17 17 E 3 6 30.10 1019 10 16 0.00 0.00
2:53 pm 14:53 Sunny 58 14.4 14 -10 17 17 SE 3 6 30.09 1019 10 16 0.00 0.00
3:53 pm 15:53 Sunny 58 14.4 13 -10.6 17 17 Calm 30.09 1019 10 16 0.00 0.00
4:53 pm 16:53 Clear 56 13.3 13 -10.6 18 18 Calm 30.10 1019 10 16 0.00 0.00
5:53 pm 17:53 Clear 51 10.6 15 -9.4 23 23 Calm 30.12 1020 10 16 0.00 0.00
6:53 pm 18:53 Clear 49 9.4 17 -8.3 28 28 NW 8 13 30.14 1021 10 16 0.00 0.00
7:53 pm 19:53 Clear 48 8.9 18 -7.8 30 30 WNW 8 13 30.14 1021 10 16 0.00 0.00
8:53 pm 20:53 Clear 47 8.3 18 -7.8 31 31 undefined N/A 30.16 1021 10 16 0.00 0.00
9:53 pm 21:53 Clear 46 7.8 18 -7.8 32 32 W 5 7 30.16 1021 10 16 0.00 0.00
10:53 pm 22:53 Clear 53 11.7 21 -6.1 28 28 N 10 17 30.15 1021 10 16 0.00 0.00
11:53 pm 23:53 Clear 52 11.1 24 -4.4 33 33 NNW 12 19 30.16 1021 10 16 0.00 0.00

Powered by AerisWeather